Date,TemperatureHighF,TemperatureAvgF,TemperatureLowF,DewpointHighF,DewpointAvgF,DewpointLowF,HumidityHigh,HumidityAvg,HumidityLow,PressureMaxIn,PressureMinIn,WindSpeedMaxMPH,WindSpeedAvgMPH,GustSpeedMaxMPH,PrecipitationSumIn
2013-12-1,54.6,44.5,35.8,38.7,31.9,24.5,89,62,39,30.04,29.86,3,1,11,0.00
2013-12-2,52.4,43.2,35.6,38.6,35.8,32.1,90,76,59,29.85,29.65,3,0,8,0.00
2013-12-3,50.8,44.4,35.7,48.6,42.3,33.3,97,92,80,29.73,29.65,3,0,13,0.03
2013-12-4,63.5,54.9,46.8,59.1,52.6,45.2,97,92,75,29.69,29.51,3,1,12,0.00
2013-12-5,63.4,39.5,25.6,57.1,35.1,23.3,91,84,75,30.15,29.62,4,1,14,0.14
2013-12-6,24.9,23.5,22.2,22.6,20.9,18.4,91,90,85,30.38,30.11,0,0,0,0.00
2013-12-7,28.6,18.6,9.5,17.8,12.0,5.5,84,76,62,30.57,30.39,0,0,6,0.34
2013-12-8,30.0,24.3,19.2,28.7,20.0,13.2,95,84,75,30.43,29.93,3,1,12,0.00
2013-12-9,30.0,25.8,21.4,28.7,20.3,14.7,95,80,62,30.19,29.93,4,2,13,0.01
2013-12-10,26.1,19.7,12.8,17.0,13.0,8.9,88,76,55,30.30,30.13,4,1,16,0.01
2013-12-11,32.6,19.5,10.3,23.6,13.5,7.0,88,78,67,30.49,30.26,4,1,13,0.00
2013-12-12,21.6,13.8,1.8,6.6,0.9,-5.8,82,59,30,30.52,30.27,2,0,12,0.00
2013-12-13,38.7,28.7,15.2,30.3,18.1,7.4,92,66,45,30.27,30.00,3,0,14,0.07
2013-12-14,36.5,33.3,29.0,35.5,32.0,26.8,96,95,91,30.00,29.65,2,1,17,0.34
2013-12-15,29.3,25.6,22.5,26.7,20.4,16.4,90,81,70,30.05,29.89,5,2,18,0.00
2013-12-16,37.2,31.8,27.0,31.8,28.4,23.4,92,87,79,30.03,29.91,3,0,8,0.02
2013-12-17,34.9,27.1,23.9,30.0,23.8,21.5,92,87,81,30.12,29.93,4,1,12,0.00
2013-12-18,40.7,31.1,20.1,22.0,16.7,12.7,90,58,33,30.20,29.93,3,1,12,0.01
2013-12-19,55.4,48.4,42.0,46.7,37.1,23.7,74,65,48,29.94,29.78,3,2,16,0.00
2013-12-20,61.4,57.6,55.3,58.6,52.1,46.1,92,82,70,29.78,29.65,4,3,21,0.43
2013-12-21,57.9,48.1,42.4,57.1,47.1,41.3,97,96,93,29.70,29.31,3,0,10,3.85
2013-12-22,59.4,39.8,32.1,58.5,38.3,28.7,97,94,87,30.03,29.30,6,3,17,0.05
2013-12-23,32.1,26.6,20.4,28.4,21.1,14.3,86,80,75,30.39,30.04,3,2,12,0.00
2013-12-24,21.7,15.2,6.9,12.5,5.7,-0.9,75,66,53,30.53,30.38,2,1,14,0.00
2013-12-25,31.3,25.4,19.3,24.6,16.4,10.8,76,68,59,30.38,30.14,2,1,10,0.00
2013-12-26,40.2,33.4,28.2,26.7,24.1,22.2,82,69,49,30.29,30.13,5,1,14,0.00
2013-12-27,49.5,38.1,29.8,31.5,27.7,22.6,79,67,48,30.31,30.19,2,0,12,0.00
2013-12-28,54.3,42.7,35.0,31.8,30.0,27.6,81,62,41,30.18,29.88,2,1,11,0.00
2013-12-29,45.1,36.4,27.5,37.0,31.3,25.2,92,83,60,30.02,29.75,5,2,16,0.01
2013-12-30,26.8,22.4,18.6,24.3,14.7,10.8,90,73,54,30.23,30.03,2,1,13,0.00
2013-12-31,36.4,28.1,20.7,21.0,16.3,12.8,74,62,44,30.32,30.12,4,1,12,0.00